METAR AND TAF INFORMATION

METAR FOR SVSA
ADDS - METARS form results

(0902 UTC 24 July 2021)
Data provider http://aviationweather.gov/metar/data/
 
Forecast for: SVSA (SAN ANTONIO TACH, VE)
Text: TAF SVSA 240400Z 2406/2506 16005KT 9999 SCT016 TX31/2417Z TN23/2408Z
Forecast period: 0600 UTC 24 July 2021 to 0600 UTC 25 July 2021
Forecast type: FROM: standard forecast or significant change
Winds: from the SSE (160 degrees) at 6 MPH (5 knots; 2.6 m/s)
Visibility: 6 or more miles (10+ km)
Ceiling: at least 12,000 feet AGL
Clouds: scattered clouds at 1600 feet AGL
Weather: no significant weather forecast for this period
Text: TEMPO 2406/2410 18003KT 9000 -DZ BKN016
Forecast period: 0600 to 1000 UTC 24 July 2021
Forecast type: TEMPORARY: The following changes expected for less than half the time period
Winds: from the S (180 degrees) at 3 MPH (3 knots; 1.5 m/s)
Visibility: 6 miles (9 km)
Ceiling: 1600 feet AGL
Clouds: broken clouds at 1600 feet AGL
Weather: -DZ  (light drizzle)

 

AIRPORT MAP

 

RUNWAY INFORMATION

Runway 17 Runway length 6135 ft Runway width 131 ft
Runway elevation 0 ft Runway displaced threshold 0 ft Runway heading 166
Runway 35 Runway length 6135 ft Runway width 131 ft
Runway elevation 0 ft Runway displaced threshold 0 ft Runway heading 346

 

AIRPORT FREQUENCIES

Type GND Name GND Frequency 121.9 MHZ
Type TWR Name TWR Frequency 118.5 MHZ

 

AIRPORT NEAR NAVIGATION AIDS